GAOFEN-3

Last updated on Thu Oct 30 2025 00:02:31 GMT+0000 (Coordinated Universal Time)

1 41727U 16049A 25302.54133918 .00000116 00000+0 48320-4 0 9995 2 41727 98.4058 308.7959 0001526 104.6429 255.4929 14.42217916485402
UTC large
Height (km)
Speed (km/s)
/
Latitude / Longitude
Inclination (degrees)
Orbital Period (minutes)
Azimuth
Elevation
Range (km)
Doppler Factor

Next 0 passes for location: London (51.5072 / 0.1276)

Sorry there are no passes over London.